Location: Newark
(46.6167°N, 6.4333°E)
Time: 05:13:44
(UTC+00:00)

N. Korean satellite - Visible Passes

Search period start: 12 November 2019 00:00
Search period end: 22 November 2019 00:00
Orbit: 456 x 506 km, 97.2° (Epoch: 10 November)

Date Brightness Start Highest point End Pass type
(mag) Time Alt. Az. Time Alt. Az. Time Alt. Az.
12 Nov 10.1 04:27:27 10° NE 04:29:32 14° E 04:31:35 10° SE visible
12 Nov 6.7 16:37:15 10° SSE 16:40:50 84° W 16:44:30 10° NNW visible
13 Nov 6.7 05:34:06 10° NNE 05:37:51 87° ESE 05:41:34 10° SSW visible
13 Nov 10.1 17:47:23 10° WSW 17:49:11 13° W 17:51:00 10° WNW visible
14 Nov 8.0 05:08:53 10° NNE 05:12:27 42° E 05:15:58 10° S visible
14 Nov 9.2 17:20:34 10° SSW 17:23:36 25° W 17:26:41 10° NW visible
15 Nov 9.4 04:43:59 10° NE 04:46:56 22° E 04:49:51 10° SE visible
15 Nov 7.7 16:54:35 10° S 16:58:06 50° W 17:01:42 10° NNW visible
16 Nov 10.2 04:19:59 10° ENE 04:21:20 12° E 04:22:39 10° ESE visible
16 Nov 6.7 05:51:25 10° N 05:55:05 57° WNW 05:58:43 10° SSW visible
16 Nov 6.5 16:29:05 10° SSE 16:32:42 78° ENE 16:36:24 10° N visible
17 Nov 7.0 05:26:00 10° NNE 05:29:44 69° E 05:33:24 10° S visible
17 Nov 9.9 17:38:35 10° SW 17:40:58 16° W 17:43:22 10° NW visible
18 Nov 8.5 05:00:52 10° NNE 05:04:17 34° E 05:07:38 10° SSE visible
18 Nov 8.7 17:12:08 10° SSW 17:15:24 31° W 17:18:43 10° NNW visible
19 Nov 9.7 04:36:07 10° NE 04:38:43 18° E 04:41:17 10° SE visible
19 Nov 7.2 16:46:19 10° S 16:49:55 63° W 16:53:37 10° NNW visible
20 Nov 6.5 05:43:14 10° N 05:46:57 72° WNW 05:50:35 10° SSW visible
20 Nov 6.6 16:20:56 10° SSE 16:24:33 62° ENE 16:28:13 10° N visible
20 Nov 10.3 17:57:35 10° W 17:58:21 11° W 17:59:08 10° WNW visible
21 Nov 7.4 05:17:53 10° NNE 05:21:33 55° E 05:25:08 10° S visible
21 Nov 9.5 17:29:56 10° SW 17:32:43 20° W 17:35:31 10° NW visible
